Zurück zum Katalog

BREEZE-KM R/B

AktivPO
NORAD 39486·ROCKET BODY·🇷🇺 Russia

Gestartet Dec 25, 2013 von Plesetsk Cosmodrome

Loading…

Nächste Überflüge (nächste 24 Stunden)

TLE

AktuellSource: Space-Track

Epoche: Sep 14, 2026, 10:02 UTC

1 39486U 13076D   26257.41831695  .00000008  00000-0 -16652-4 0  9999
2 39486  82.4782 247.2157 0233448 152.0761 209.3102 12.82992764595698

Verfolge BREEZE-KM R/B in Echtzeit mit AllMySat

Download on the App Store